Regional Weather Roundup
Issued by NWS

Home | Current Version | Previous Version | Text Only | Print | Product List | Glossary Off
Versions: 1 2 3 4 5 6 7 8 9 10 11 12 13 14 15 16 17 18 19 20 21 22 23 24 25 26 27 28 29 30 31 32 33 34 35 36 37 38 39 40 41 42 43 44 45 46 47 48 49 50

000
ASUS43 KMKX 180121
RWRWI

WISCONSIN REGIONAL WEATHER ROUNDUP
NATIONAL WEATHER SERVICE MILWAUKEE/SULLIVAN WI
800 PM CDT THU APR 17 2014

NOTE: "FAIR" INDICATES FEW OR NO CLOUDS BELOW 12,000 FEET WITH NO
SIGNIFICANT WEATHER AND/OR OBSTRUCTIONS TO VISIBILITY.

WIZ001-002-006>008-014>016-023>028-180200-
NORTHWEST WISCONSIN

CITY           SKY/WX    TMP DP  RH WIND       PRES   REMARKS
SUPERIOR ARPT  CLEAR     36  22  56 N6        30.30R WCI  31
ASHLAND        CLOUDY    34  27  75 N6        30.28S WCI  29
HAYWARD        CLOUDY    33  30  88 CALM      30.27S
SIREN          CLEAR     37  25  62 CALM      30.28R
RICE LAKE      CLOUDY    34  27  76 CALM      30.30R
LADYSMITH      CLOUDY    35  28  75 CALM      30.29S
EAU CLAIRE     CLOUDY    37  26  64 N5        30.28R WCI  33
MENOMONIE      CLOUDY    39  27  62 N3        30.28S
NEW RICHMOND   CLEAR     36  25  64 CALM      30.29S
OSCEOLA        CLEAR     37  26  64 CALM      30.31S
$$

WIZ003>005-009-010-017-018-180200-
NORTH CENTRAL WISCONSIN

CITY           SKY/WX    TMP DP  RH WIND       PRES   REMARKS
WOODRUFF       CLOUDY    33  29  85 CALM      30.24R
RHINELANDER    CLOUDY    32  27  81 W10       30.24R WCI  24
EAGLE RIVER    CLOUDY    32  27  83 NW9       30.23R WCI  24
LAND O LAKES   CLOUDY    32  29  88 CALM      30.23R
PHILLIPS       CLOUDY    32  27  82 CALM      30.26R
TOMAHAWK       CLOUDY    32  28  86 CALM      30.25R
MEDFORD        CLOUDY    32  28  83 NW8       30.26R WCI  25
MERRILL        CLOUDY    35  30  82 CALM      30.25S
$$

WIZ029-030-035-036-043>047-180200-
CENTRAL WISCONSIN

CITY           SKY/WX    TMP DP  RH WIND       PRES   REMARKS
WAUSAU         CLOUDY    36  29  75 NW6       30.24R WCI  31
MOSINEE        CLOUDY    36  30  80 NW8       30.26R WCI  29
MARSHFIELD     CLOUDY    37  30  75 NW9       30.25S WCI  30
STEVENS POINT  CLOUDY    36  29  76 W3        30.27R
WAUPACA        CLOUDY    43  34  70 NW7       30.27R
WAUTOMA        CLOUDY    41  33  73 NW8       30.27R
WISC RAPIDS    CLOUDY    38  29  70 NW6       30.28R WCI  33
CAMP DOUGLAS   CLOUDY    39  32  74 NW6       30.27R WCI  35
$$

WIZ011>013-019>022-031-037>040-048>050-180200-
NORTHEAST WISCONSIN

CITY           SKY/WX    TMP DP  RH WIND       PRES   REMARKS
ANTIGO         CLOUDY    34  29  83 NW6       30.24R WCI  29
STURGEON BAY   MOCLDY    39  32  75 CALM      30.24R
GREEN BAY      CLOUDY    45  36  70 NW16      30.24R
MANITOWOC      CLOUDY    48  38  68 N6        30.23R
APPLETON       MOCLDY    43  34  70 NW12      30.24R
CLINTONVILLE   CLOUDY    41  34  75 NW10      30.25R
OSHKOSH        PTCLDY    44  34  67 NW10      30.24R
$$

WIZ032>034-041-042-053>061-180200-
SOUTHWEST WISCONSIN

CITY           SKY/WX    TMP DP  RH WIND       PRES   REMARKS
LA CROSSE      CLOUDY    40  29  64 NW7       30.29R
SPARTA         CLOUDY    39  29  67 NW6       30.29S WCI  35
VIROQUA        CLOUDY    37  31  80 N7        30.26R WCI  31
BOSCOBEL       CLEAR     44  31  60 NW6       30.26R
PRAIRIE DU CHI CLEAR     42  31  65 NW9       30.27R
PLATTEVILLE    FAIR      44  34  68 W5        30.25R
$$

WIZ056-057-062-063-064-067-068-180200-
SOUTH CENTRAL WISCONSIN

CITY           SKY/WX    TMP DP  RH WIND       PRES   REMARKS
BARABOO/DELLS  PTCLDY    40  32  74 N5        30.25R
LONE ROCK      CLEAR     46  34  62 NW10      30.24R
WATERTOWN      MOCLDY    48  37  66 NW8       30.22R
MADISON        MOCLDY    45  35  68 N9        30.23R
MIDDLETON      FAIR      46  35  66 N6        30.23R
MONROE         MOCLDY    49  35  58 W8        30.22S
JANESVILLE     CLEAR     52  36  54 NW5       30.21R
$$

WIZ051-052-058>065-066-070>072-180200-
SOUTHEAST WISCONSIN

CITY           SKY/WX    TMP DP  RH WIND       PRES   REMARKS
MILWAUKEE      MOCLDY    47  36  65 NE5       30.23R
WAUKESHA       NOT AVBL
MILWAUKEE/TIMM CLEAR     50  36  57 CALM      30.22R
RACINE         CLOUDY    44  36  73 CALM      30.24R
BURLINGTON     CLOUDY    46  37  69 SW3       30.22R
KENOSHA        CLOUDY    50  38  63 W3        30.22R
FOND DU LAC    MOCLDY    45  35  68 NW13      30.23R
SHEBOYGAN      CLOUDY    50  38  63 NW5       30.21R
WEST BEND      MOCLDY    50  34  53 NW8       30.21R
JUNEAU         MOCLDY    45  33  61 NW9       30.24R
$$

LSZ147-162-180200-
LAKE SUPERIOR

STATION/POSITION TIME  TEMP    WIND        PRES    WAVE
                       AIR SEA DIR/SP/G            HT/PER
                 (UTC) (F)     (DEG/KT/KT) (MB)    (FT/S)
DEVILS ISLAND    0100   33     280/  9/ 10 1026.2R
PORT WING        0000   34      10/  1/  4 1025.4S
SAXON HARBOR     0000             CALM     1025.4R
$$

LMZ867-665-643>646-180200-
LAKE MICHIGAN

STATION/POSITION TIME  TEMP    WIND        PRES    WAVE
                       AIR SEA DIR/SP/G            HT/PER
                 (UTC) (F)     (DEG/KT/KT) (MB)    (FT/S)
NORTHPORT PIER   0000   38      CALM  /  2 1023.7R
SISTER BAY       0023   40        CALM       N/A
KEWAUNEE LAKESHO 0000   40      20/  3/  5 1023.6R
SHEBOYGAN LAKESH 0100   49     290/  3/  4 1023.6R
PORT WASHINGTON  0000   54     250/  5/  8 1023.0S
MILWAUKEE LAKESH 0100   42     200/  2/  3   N/A
KENOSHA   LAKESH 0100   44     160/  2/  4   N/A
$$

TC  - TEMPERATURE IN CELSIUS
VSB - VISIBILITY IN STATUTE MILES
WCI - WIND CHILL INDEX
HX  - HEAT INDEX




USA.gov is the U.S. government's official web portal to all federal, state and local government web resources and services.